Location: Anaheim
(33.8350°N, 117.9140°W)
Time: 17:27:37
(UTC-07:00)

Amateur Radio Satellites - All Passes

Search period start: 27 August 2016 16:57
Search period end: 28 August 2016 16:57
Location: Anaheim, 33.8350°N, 117.9140°W

Satellite Date Start Highest point End Downlink Frequencies (MHz)
Time Altitude Azimuth
KKS-1 27 Aug 17:00:40 17:05:07 73° 284° (WNW) 17:09:32 437.445
MOZHAYETS 4 27 Aug 17:05:46 17:10:09 47° 286° (WNW) 17:14:33
Cosmos 2491 27 Aug 17:10:43 17:17:07 23° 83° (E) 17:23:32 435.465 / 435.565
GOMX 1 27 Aug 17:14:15 17:16:59 15° 64° (ENE) 17:19:47 467.674
Cubesat XI-IV 27 Aug 17:16:03 17:19:23 17° 65° (ENE) 17:22:42 437.490
HORYU 2 27 Aug 17:16:51 17:21:19 83° 255° (WSW) 17:25:48 437.375
CUTE-I 27 Aug 17:27:09 17:31:10 22° 67° (ENE) 17:35:10 437.470
NOAA 15 27 Aug 17:28:09 17:32:36 29° 69° (ENE) 17:37:04 137.62
YUBILEINY 27 Aug 17:32:30 17:41:08 59° 80° (E) 17:49:39 435.215
ISS 27 Aug 17:33:56 17:34:36 10° 234° (SW) 17:35:16 145.825
BRITE-PL 27 Aug 17:35:29 17:40:05 53° 74° (ENE) 17:45:05 437.365/2234.400
STARS 27 Aug 17:36:53 17:41:12 58° 285° (WNW) 17:45:29 437.465
LilacSat-2 27 Aug 17:41:42 17:44:40 22° 71° (ENE) 17:47:39 437.200
AO-7 27 Aug 17:45:05 17:49:04 14° 268° (W) 17:53:05 29.400- 29.500
Cosmos 2504 27 Aug 17:50:22 17:55:41 22° 72° (ENE) 18:00:57 435.465 / 435.565
BEESAT 3 27 Aug 17:53:13 17:54:26 11° 49° (NE) 17:55:38 437.485
NOAA 18 27 Aug 18:05:15 18:10:32 48° 72° (ENE) 18:15:51 137.9125
CUBESAT XI-V 27 Aug 18:25:29 18:30:05 55° 285° (WNW) 18:34:41 437.345
GOMX 1 27 Aug 18:49:31 18:54:24 59° 260° (W) 18:59:38 467.674
CANX-2 27 Aug 18:49:45 18:50:35 11° 66° (ENE) 18:51:24 2200.000
Cubesat XI-IV 27 Aug 18:53:46 18:58:59 52° 260° (W) 19:04:12 437.490
CUTE 1.7 + AOD 2 27 Aug 18:55:44 18:56:40 11° 67° (ENE) 18:57:38 437.475
DOVE 4 27 Aug 18:55:59 19:01:04 73° 76° (ENE) 19:06:21 437.250
Cosmos 2491 27 Aug 19:04:36 19:13:10 62° 279° (W) 19:21:50 435.465 / 435.565
CUTE-I 27 Aug 19:05:56 19:10:54 39° 261° (W) 19:15:53 437.470
NOAA 15 27 Aug 19:07:47 19:12:15 28° 263° (W) 19:16:46 137.62
BEESAT 2 27 Aug 19:10:30 19:14:16 38° 57° (ENE) 19:18:00 435.950
LilacSat-2 27 Aug 19:16:00 19:18:51 20° 264° (W) 19:21:43 437.200
BRITE-PL 27 Aug 19:16:43 19:18:58 13° 270° (W) 19:21:18 437.365/2234.400
BEESAT 3 27 Aug 19:28:32 19:32:26 58° 245° (WSW) 19:36:18 437.485
YUBILEINY 27 Aug 19:30:33 19:37:13 25° 277° (W) 19:43:51 435.215
CINEMA 3 27 Aug 19:36:57 19:41:49 53° 75° (ENE) 19:46:40 145.822/145.860
Cosmos 2504 27 Aug 19:42:26 19:49:23 53° 269° (W) 19:56:18 435.465 / 435.565
HO-68 27 Aug 19:44:24 19:51:29 64° 71° (ENE) 19:58:34 435.675
STRAND 1 27 Aug 19:45:24 19:50:18 45° 100° (E) 19:55:09 437.568
NOAA 18 27 Aug 19:47:37 19:51:22 18° 265° (W) 19:55:08 137.9125
UWE-3 27 Aug 19:55:03 19:57:22 14° 67° (ENE) 19:59:39 435.000/436.395/437.385
CUBEBUG 2 27 Aug 19:56:02 19:59:40 23° 70° (ENE) 20:03:14 437.445
SEEDS 27 Aug 20:00:18 20:04:16 45° 74° (ENE) 20:08:14 437.485
AIST 1 27 Aug 20:04:30 20:08:09 25° 77° (ENE) 20:11:46
ZACube-1 27 Aug 20:10:04 20:11:51 12° 67° (ENE) 20:13:38 437.345
CANX-2 27 Aug 20:21:50 20:25:55 52° 260° (W) 20:30:02 2200.000
CUTE 1.7 + AOD 2 27 Aug 20:27:56 20:32:01 52° 260° (W) 20:36:07 437.475
AAUSAT CUBESAT 2 27 Aug 20:31:11 20:35:12 56° 75° (ENE) 20:39:14 437.432
DOVE 4 27 Aug 20:38:13 20:39:14 11° 271° (W) 20:40:15 437.250
COMPASS 1 27 Aug 20:39:13 20:43:20 85° 259° (WSW) 20:47:28 437.405
BEESAT 2 27 Aug 20:49:40 20:51:43 14° 251° (WSW) 20:53:45 435.950
PCSat 27 Aug 21:04:15 21:09:22 41° 59° (ENE) 21:14:27 145.827
Oscar 11 27 Aug 21:14:12 21:18:28 70° 76° (ENE) 21:22:45 145.826/435.025
CINEMA 3 27 Aug 21:16:33 21:19:09 14° 268° (W) 21:21:46 145.822/145.860
PRISM 27 Aug 21:17:30 21:21:31 44° 100° (E) 21:25:31 437.425
FUNcube-1 27 Aug 21:21:37 21:26:06 81° 76° (ENE) 21:30:29 145.935
AIST 2 27 Aug 21:22:29 21:26:27 40° 58° (ENE) 21:30:23 435.215
STRAND 1 27 Aug 21:25:43 21:29:04 18° 294° (WNW) 21:32:26 437.568
UWE-3 27 Aug 21:28:58 21:33:24 47° 261° (W) 21:37:46 435.000/436.395/437.385
CUBEBUG 2 27 Aug 21:31:58 21:36:04 30° 263° (W) 21:40:08 437.445
HO-68 27 Aug 21:34:34 21:39:34 20° 266° (W) 21:44:36 435.675
SEEDS 27 Aug 21:39:02 21:40:10 11° 268° (W) 21:41:17 437.485
AIST 1 27 Aug 21:42:17 21:45:33 21° 272° (W) 21:48:48
ZACube-1 27 Aug 21:43:19 21:47:41 51° 260° (W) 21:51:59 437.345
GONETS M04 27 Aug 21:49:53 21:54:55 16° 67° (ENE) 21:59:54
DELFI C3 27 Aug 22:09:03 22:12:55 60° 260° (W) 22:16:49 145.870
UNISAT 6 27 Aug 22:10:01 22:12:34 15° 94° (E) 22:15:05 437.425
HUMSAT D 27 Aug 22:28:22 22:32:33 82° 260° (W) 22:36:42 437.325/437.525
SO-50 27 Aug 22:33:36 22:37:09 20° 110° (ESE) 22:40:41 436.795
AUBIESAT-1 27 Aug 22:34:01 22:38:14 36° 68° (ENE) 22:42:29 437.475
CUBEBUG 1 27 Aug 22:36:05 22:36:32 10° 65° (ENE) 22:36:59 437.445
M-CUBED/EXP-1 PRIME 27 Aug 22:39:29 22:43:59 52° 70° (ENE) 22:48:35 437.505
ANTELSAT 27 Aug 22:45:42 22:49:46 42° 99° (E) 22:53:47 437.575/2403.000
Cosmos 2499 27 Aug 22:46:48 22:52:33 26° 74° (ENE) 22:58:20 435.465 / 435.565
PCSat 27 Aug 22:48:22 22:52:25 22° 254° (WSW) 22:56:28 145.827
PRISM 27 Aug 22:54:38 22:56:23 12° 294° (WNW) 22:58:08 437.425
50 SAT 27 Aug 22:58:31 22:59:53 12° 68° (ENE) 23:01:15 437.505
AIST 2 27 Aug 23:02:17 23:04:32 14° 252° (WSW) 23:06:47 435.215
ESTCUBE 1 27 Aug 23:11:51 23:16:06 44° 73° (ENE) 23:20:22 437.505/2401.250
TIGRISAT 27 Aug 23:16:26 23:20:43 84° 281° (W) 23:24:57 435.000
AISAT 27 Aug 23:19:42 23:23:33 30° 71° (ENE) 23:27:26 437.250
DUCHIFAT 1 27 Aug 23:20:54 23:21:07 10° 92° (E) 23:21:21 145.980
QB50P2 27 Aug 23:21:58 23:24:13 14° 94° (E) 23:26:26 145.880/145.840
POLYITAN 1 27 Aug 23:24:28 23:26:44 14° 94° (E) 23:28:58 437.675
UKube-1 27 Aug 23:28:33 23:31:28 18° 68° (ENE) 23:34:22 .
NANOSAT C BR1 27 Aug 23:32:30 23:35:13 17° 94° (E) 23:37:54 145.865
GONETS M04 27 Aug 23:43:55 23:52:50 88° 265° (W) 00:01:40
UNISAT 6 27 Aug 23:45:30 23:49:22 34° 288° (WNW) 23:53:12 437.425
CUSAT 1 28 Aug 00:01:31 00:04:05 34° 284° (WNW) 00:07:08 437.405
JAS-2 28 Aug 00:02:10 00:08:10 29° 97° (E) 00:14:34 435.910
VELOX 1 28 Aug 00:06:21 00:10:47 81° 259° (WSW) 00:15:15 145.980
CUBEBUG 1 28 Aug 00:07:54 00:12:14 61° 260° (W) 00:16:37 437.445
AUBIESAT-1 28 Aug 00:09:23 00:12:41 19° 261° (W) 00:16:00 437.475
O/OREOS (USA 219) 28 Aug 00:10:29 00:15:06 78° 72° (ENE) 00:19:41 437.305
BUGSAT 1 28 Aug 00:12:44 00:15:35 18° 95° (E) 00:18:24 437.445
SO-50 28 Aug 00:12:48 00:17:21 39° 304° (WNW) 00:21:53 436.795
QB50P1 28 Aug 00:15:27 00:19:38 62° 101° (E) 00:23:47 145.935-145.965
M-CUBED/EXP-1 PRIME 28 Aug 00:16:20 00:18:42 14° 263° (W) 00:21:04 437.505
DX 1 28 Aug 00:22:50 00:27:11 77° 258° (WSW) 00:31:35 434.975-435.025
ANTELSAT 28 Aug 00:24:01 00:26:04 13° 293° (WNW) 00:28:06 437.575/2403.000
SPROUT 28 Aug 00:24:17 00:28:35 78° 76° (ENE) 00:32:54 437.525
POPSAT HIP 1 28 Aug 00:25:28 00:29:42 83° 102° (ESE) 00:33:52 437.405
50 SAT 28 Aug 00:29:54 00:33:07 31° 262° (W) 00:36:21 437.505
RS-15 28 Aug 00:37:49 00:48:29 49° 108° (ESE) 00:59:42 29.354- 29.394
Cosmos 2499 28 Aug 00:39:10 00:45:44 43° 270° (W) 00:52:27 435.465 / 435.565
TISAT 1 28 Aug 00:43:18 00:46:44 24° 71° (ENE) 00:50:11 437.305
PHONESAT 2.4 28 Aug 00:47:32 00:50:12 29° 147° (SSE) 00:52:52 2401.200-2431.200
ESTCUBE 1 28 Aug 00:50:57 00:53:05 13° 267° (W) 00:55:14 437.505/2401.250
DUCHIFAT 1 28 Aug 00:53:00 00:57:03 49° 286° (WNW) 01:01:04 145.980
QB50P2 28 Aug 00:56:14 01:00:07 37° 287° (WNW) 01:03:59 145.880/145.840
AISAT 28 Aug 00:56:44 01:00:00 20° 265° (W) 01:03:17 437.250
POLYITAN 1 28 Aug 00:58:46 01:02:38 36° 287° (WNW) 01:06:28 437.675
DANDE 28 Aug 01:01:55 01:03:45 17° 284° (WNW) 01:05:39 436.750
UKube-1 28 Aug 01:03:22 01:07:13 32° 262° (W) 01:11:07 .
NANOSAT C BR1 28 Aug 01:07:15 01:10:58 31° 288° (WNW) 01:14:38 145.865
ITUPSAT 1 28 Aug 01:28:25 01:31:06 15° 66° (ENE) 01:33:47 437.325
GONETS M04 28 Aug 01:44:18 01:48:16 14° 282° (WNW) 01:52:14
JAS-2 28 Aug 01:46:34 01:53:10 49° 288° (WNW) 02:00:25 435.910
BUGSAT 1 28 Aug 01:47:26 01:50:56 27° 289° (WNW) 01:54:22 437.445
Oscar 19 28 Aug 01:48:38 01:53:31 40° 99° (E) 01:58:22 437.125/150
SWISSCUBE 28 Aug 01:59:23 02:03:43 37° 72° (ENE) 02:08:05 437.505
BEESAT 28 Aug 02:16:11 02:20:47 51° 74° (ENE) 02:25:23 436.000
TISAT 1 28 Aug 02:18:57 02:22:16 22° 264° (W) 02:25:37 437.305
PHONESAT 2.4 28 Aug 02:23:36 02:26:28 42° 342° (NNW) 02:29:21 2401.200-2431.200
RS-15 28 Aug 02:50:02 03:00:55 46° 309° (NW) 03:12:28 29.354- 29.394
Gurwin Techsat 1B 28 Aug 03:01:36 03:06:56 86° 284° (WNW) 03:12:15 435.225
ITUPSAT 1 28 Aug 03:03:55 03:08:30 47° 260° (W) 03:13:06 437.325
ITAMSAT 1 28 Aug 03:03:57 03:08:18 27° 97° (E) 03:12:37 435.822/435.867
Oscar 19 28 Aug 03:28:43 03:32:31 21° 293° (WNW) 03:36:16 437.125/150
SWISSCUBE 28 Aug 03:38:22 03:41:35 18° 265° (W) 03:44:49 437.505
AO-7 28 Aug 03:53:36 04:01:16 40° 100° (E) 04:08:52 29.400- 29.500
KKS-1 28 Aug 03:54:28 03:58:52 62° 75° (ENE) 04:03:18 437.445
BEESAT 28 Aug 03:56:38 03:58:48 13° 267° (W) 04:00:57 436.000
PHONESAT 2.4 28 Aug 04:00:50 04:03:14 22° 358° (N) 04:05:39 2401.200-2431.200
MOZHAYETS 4 28 Aug 04:03:15 04:07:49 81° 258° (WSW) 04:12:23
AO-85 28 Aug 04:11:42 04:15:38 21° 110° (ESE) 04:19:28 145.980
STARS 28 Aug 04:29:08 04:33:32 73° 76° (ENE) 04:37:58 437.465
YUBILEINY 28 Aug 04:39:34 04:41:24 11° 77° (ENE) 04:43:14 435.215
ITAMSAT 1 28 Aug 04:43:13 04:47:40 30° 291° (WNW) 04:52:07 435.822/435.867
RS-15 28 Aug 05:11:28 05:17:50 15° 340° (NNW) 05:24:20 29.354- 29.394
HORYU 2 28 Aug 05:12:13 05:15:50 24° 97° (E) 05:19:25 437.375
Cosmos 2491 28 Aug 05:19:39 05:28:19 57° 80° (E) 05:36:56 435.465 / 435.565
CUBESAT XI-V 28 Aug 05:24:29 05:29:04 89° 79° (E) 05:33:42 437.345
PHONESAT 2.4 28 Aug 05:37:19 05:40:05 32° 15° (NNE) 05:42:49 2401.200-2431.200
BRITE-PL 28 Aug 05:44:23 05:49:12 28° 95° (E) 05:53:51 437.365/2234.400
AO-7 28 Aug 05:46:22 05:53:53 40° 296° (WNW) 06:01:24 29.400- 29.500
NOAA 15 28 Aug 05:48:14 05:51:07 15° 93° (E) 05:54:00 137.62
CUTE-I 28 Aug 05:50:04 05:51:19 11° 91° (E) 05:52:34 437.470
AO-85 28 Aug 05:50:44 05:55:51 44° 303° (WNW) 06:00:43 145.980
Cosmos 2504 28 Aug 06:23:51 06:30:07 23° 85° (E) 06:36:05 435.465 / 435.565
YUBILEINY 28 Aug 06:27:48 06:36:36 76° 93° (E) 06:45:26 435.215
NOAA 18 28 Aug 06:31:42 06:36:20 28° 97° (E) 06:40:55 137.9125
HORYU 2 28 Aug 06:48:43 06:52:15 24° 290° (WNW) 06:55:46 437.375
LilacSat-2 28 Aug 06:52:03 06:55:45 54° 100° (E) 06:59:26 437.200
GOMX 1 28 Aug 06:55:27 07:00:47 61° 100° (E) 07:05:46 467.674
STRAND 1 28 Aug 06:57:27 07:02:15 43° 72° (ENE) 07:07:04 437.568
ISS 28 Aug 06:58:25 06:59:15 11° 126° (SE) 07:00:04 145.825
DOVE 4 28 Aug 07:00:00 07:04:11 27° 95° (E) 07:08:09 437.250
PHONESAT 2.4 28 Aug 07:13:36 07:16:29 46° 210° (SSW) 07:19:21 2401.200-2431.200
Cubesat XI-IV 28 Aug 07:14:46 07:20:07 87° 104° (ESE) 07:25:26 437.490
Cosmos 2491 28 Aug 07:17:36 07:24:31 27° 276° (W) 07:31:25 435.465 / 435.565
HO-68 28 Aug 07:19:28 07:22:35 13° 91° (E) 07:25:40 435.675
BRITE-PL 28 Aug 07:22:30 07:27:34 34° 290° (WNW) 07:32:31 437.365/2234.400
NOAA 15 28 Aug 07:25:59 07:31:10 56° 287° (WNW) 07:36:21 137.62
CUTE-I 28 Aug 07:26:30 07:31:47 72° 285° (WNW) 07:37:05 437.470
RS-15 28 Aug 07:31:57 07:38:13 15° 19° (NNE) 07:44:29 29.354- 29.394
CINEMA 3 28 Aug 07:37:30 07:40:07 15° 92° (E) 07:42:40 145.822/145.860
SEEDS 28 Aug 07:51:08 07:51:27 10° 92° (E) 07:51:47 437.485
PRISM 28 Aug 08:03:56 08:06:51 19° 69° (ENE) 08:09:46 437.425
CANX-2 28 Aug 08:10:43 08:14:34 33° 98° (E) 08:18:25 2200.000
NOAA 18 28 Aug 08:12:08 08:16:55 32° 291° (WNW) 08:21:39 137.9125
Cosmos 2504 28 Aug 08:14:28 08:22:53 61° 279° (W) 08:30:47 435.465 / 435.565
CUTE 1.7 + AOD 2 28 Aug 08:16:42 08:20:33 33° 98° (E) 08:24:24 437.475
AAUSAT CUBESAT 2 28 Aug 08:19:16 08:20:51 12° 93° (E) 08:22:26 437.432
COMPASS 1 28 Aug 08:26:36 08:29:42 20° 95° (E) 08:32:47 437.405
YUBILEINY 28 Aug 08:28:18 08:34:13 19° 291° (WNW) 08:40:11 435.215
AIST 1 28 Aug 08:30:21 08:33:17 18° 88° (E) 08:36:13
ISS 28 Aug 08:32:08 08:35:20 52° 319° (NW) 08:38:34 145.825
GOMX 1 28 Aug 08:35:23 08:38:10 14° 296° (WNW) 08:40:54 467.674
DOVE 4 28 Aug 08:37:38 08:41:44 26° 291° (WNW) 08:45:38 437.250
STRAND 1 28 Aug 08:38:12 08:41:33 18° 266° (W) 08:44:56 437.568
SO-50 28 Aug 08:47:44 08:52:17 64° 60° (ENE) 08:56:41 436.795
CUSAT 1 28 Aug 08:55:58 08:58:39 12° 70° (ENE) 09:01:27 437.405
BEESAT 2 28 Aug 08:59:46 09:02:21 17° 110° (ESE) 09:04:57 435.950
HO-68 28 Aug 09:03:47 09:10:58 86° 287° (WNW) 09:18:07 435.675
Oscar 11 28 Aug 09:06:20 09:09:11 17° 94° (E) 09:12:01 145.826/435.025
CINEMA 3 28 Aug 09:13:19 09:17:23 35° 288° (WNW) 09:21:18 145.822/145.860
FUNcube-1 28 Aug 09:14:33 09:17:29 19° 95° (E) 09:20:24 145.935
BEESAT 3 28 Aug 09:15:05 09:18:54 58° 116° (ESE) 09:22:46 437.485
UWE-3 28 Aug 09:22:36 09:26:34 43° 99° (E) 09:30:30 435.000/436.395/437.385
SEEDS 28 Aug 09:23:18 09:27:23 50° 285° (WNW) 09:31:28 437.485
CUBEBUG 2 28 Aug 09:26:17 09:30:30 79° 102° (ESE) 09:34:37 437.445
JUGNU 28 Aug 09:35:15 09:37:11 12° 164° (SSE) 09:39:07 437.505
ZACube-1 28 Aug 09:35:40 09:39:31 37° 98° (E) 09:43:21 437.345
PRISM 28 Aug 09:38:30 09:41:56 26° 263° (W) 09:45:25 437.425
ANTELSAT 28 Aug 09:40:49 09:44:34 25° 71° (ENE) 09:48:16 437.575/2403.000
RS-15 28 Aug 09:43:50 09:55:27 43° 50° (NE) 10:06:47 29.354- 29.394
CANX-2 28 Aug 09:47:27 09:50:08 17° 291° (WNW) 09:52:48 2200.000
DELFI C3 28 Aug 09:50:54 09:54:01 21° 96° (E) 09:57:07 145.870
AAUSAT CUBESAT 2 28 Aug 09:52:32 09:56:29 42° 286° (WNW) 10:00:25 437.432
CUTE 1.7 + AOD 2 28 Aug 09:53:27 09:56:05 16° 291° (WNW) 09:58:44 437.475
DANDE 28 Aug 09:57:55 10:01:07 14° 75° (ENE) 10:04:39 436.750
COMPASS 1 28 Aug 10:01:42 10:05:11 26° 289° (WNW) 10:08:40 437.405
AIST 1 28 Aug 10:06:50 10:10:36 28° 282° (WNW) 10:14:24
TIGRISAT 28 Aug 10:10:42 10:15:11 52° 75° (ENE) 10:19:36 435.000
HUMSAT D 28 Aug 10:16:20 10:19:22 20° 95° (E) 10:22:24 437.325/437.525
CUSAT 1 28 Aug 10:34:18 10:41:08 80° 82° (E) 10:49:04 437.405
BEESAT 2 28 Aug 10:36:24 10:39:54 30° 304° (NW) 10:43:26 435.950
UNISAT 6 28 Aug 10:39:27 10:44:04 67° 259° (WSW) 10:48:35 437.425
Oscar 11 28 Aug 10:41:30 10:45:19 32° 288° (WNW) 10:49:09 145.826/435.025
GONETS M04 28 Aug 10:46:26 10:52:25 21° 81° (E) 10:58:26
FUNcube-1 28 Aug 10:50:14 10:53:42 26° 288° (WNW) 10:57:08 145.935
HO-68 28 Aug 10:54:17 10:57:38 14° 303° (WNW) 11:00:58 435.675
BEESAT 3 28 Aug 10:55:53 10:56:56 11° 312° (NW) 10:57:57 437.485
UWE-3 28 Aug 11:00:56 11:02:36 12° 293° (WNW) 11:04:16 435.000/436.395/437.385
QB50P1 28 Aug 11:04:14 11:07:52 28° 71° (ENE) 11:11:31 145.935-145.965
ESTCUBE 1 28 Aug 11:09:55 11:12:00 13° 93° (E) 11:14:04 437.505/2401.250
ZACube-1 28 Aug 11:13:20 11:15:27 14° 292° (WNW) 11:17:34 437.345
POPSAT HIP 1 28 Aug 11:14:01 11:17:55 35° 73° (ENE) 11:21:50 437.405
AIST 2 28 Aug 11:17:00 11:20:06 21° 111° (ESE) 11:23:13 435.215
ANTELSAT 28 Aug 11:17:19 11:21:07 25° 263° (W) 11:24:54 437.575/2403.000
Cosmos 2499 28 Aug 11:18:43 11:25:11 26° 86° (E) 11:31:18 435.465 / 435.565
JUGNU 28 Aug 11:21:25 11:25:30 19° 174° (S) 11:29:34 437.505
DELFI C3 28 Aug 11:25:37 11:28:44 22° 289° (WNW) 11:31:50 145.870
DANDE 28 Aug 11:38:02 11:43:52 77° 263° (W) 11:51:23 436.750
DUCHIFAT 1 28 Aug 11:40:24 11:44:37 68° 76° (ENE) 11:48:51 145.980
PCSat 28 Aug 11:41:29 11:46:53 85° 114° (ESE) 11:52:20 145.827
QB50P2 28 Aug 11:44:12 11:48:29 87° 259° (WSW) 11:52:46 145.880/145.840
POLYITAN 1 28 Aug 11:46:42 11:51:00 85° 261° (W) 11:55:18 437.675
TIGRISAT 28 Aug 11:50:19 11:52:04 12° 267° (W) 11:53:48 435.000
AUBIESAT-1 28 Aug 11:51:21 11:55:05 42° 103° (ESE) 11:58:33 437.475
HUMSAT D 28 Aug 11:51:36 11:54:54 24° 289° (WNW) 11:58:14 437.325/437.525
NANOSAT C BR1 28 Aug 11:54:36 11:58:51 74° 258° (WSW) 12:03:07 145.865
JAS-2 28 Aug 11:55:45 12:00:42 48° 72° (ENE) 12:05:54 435.910
RS-15 28 Aug 11:56:23 12:08:13 55° 250° (WSW) 12:19:44 29.354- 29.394
M-CUBED/EXP-1 PRIME 28 Aug 11:57:36 12:01:36 69° 105° (ESE) 12:05:16 437.505
CUBEBUG 1 28 Aug 12:00:36 12:04:35 32° 98° (E) 12:08:30 437.445
VELOX 1 28 Aug 12:00:51 12:04:34 25° 97° (E) 12:08:14 145.980
50 SAT 28 Aug 12:01:51 12:04:51 24° 97° (E) 12:07:50 437.505
SPROUT 28 Aug 12:15:11 12:18:04 18° 95° (E) 12:20:56 437.525
DX 1 28 Aug 12:15:27 12:19:02 24° 97° (E) 12:22:34 434.975-435.025
CUSAT 1 28 Aug 12:18:27 12:22:40 17° 273° (W) 12:27:11 437.405
BUGSAT 1 28 Aug 12:32:09 12:36:21 70° 258° (WSW) 12:40:37 437.445
GONETS M04 28 Aug 12:39:37 12:48:18 69° 278° (W) 12:57:06
QB50P1 28 Aug 12:40:29 12:43:35 20° 265° (W) 12:46:43 145.935-145.965
O/OREOS (USA 219) 28 Aug 12:41:57 12:44:17 14° 99° (E) 12:46:37 437.305
Gurwin Techsat 1B 28 Aug 12:43:25 12:44:47 11° 62° (ENE) 12:46:11 435.225
ESTCUBE 1 28 Aug 12:44:38 12:49:00 47° 286° (WNW) 12:53:20 437.505/2401.250
AISAT 28 Aug 12:49:18 12:53:47 78° 283° (WNW) 12:58:12 437.250
POPSAT HIP 1 28 Aug 12:51:15 12:53:46 15° 266° (W) 12:56:17 437.405
UKube-1 28 Aug 12:53:44 12:58:00 53° 101° (E) 13:02:13 .
AIST 2 28 Aug 12:54:54 12:58:24 27° 305° (NW) 13:01:56 435.215
SRMSAT 28 Aug 13:00:22 13:03:57 16° 170° (S) 13:07:32 437.500
Oscar 19 28 Aug 13:01:38 13:06:23 39° 71° (ENE) 13:11:11 437.125/150
JUGNU 28 Aug 13:09:38 13:13:51 20° 184° (S) 13:18:04 437.505
Cosmos 2499 28 Aug 13:09:53 13:17:52 51° 280° (W) 13:25:18 435.465 / 435.565
AUBIESAT-1 28 Aug 13:27:45 13:29:02 11° 300° (WNW) 13:30:18 437.475
PCSat 28 Aug 13:28:35 13:30:57 13° 312° (NW) 13:33:20 145.827
50 SAT 28 Aug 13:35:53 13:38:13 16° 290° (WNW) 13:40:33 437.505
VELOX 1 28 Aug 13:37:20 13:40:52 24° 290° (WNW) 13:44:24 145.980
CUBEBUG 1 28 Aug 13:37:30 13:40:34 19° 292° (WNW) 13:43:38 437.445
JAS-2 28 Aug 13:43:14 13:46:10 15° 268° (W) 13:49:11 435.910
SPROUT 28 Aug 13:50:16 13:54:01 30° 288° (WNW) 13:57:44 437.525
DX 1 28 Aug 13:51:34 13:55:04 24° 290° (WNW) 13:58:34 434.975-435.025
SWISSCUBE 28 Aug 14:05:07 14:07:14 13° 93° (E) 14:09:21 437.505
TISAT 1 28 Aug 14:05:35 14:09:47 74° 103° (ESE) 14:13:56 437.305
ITAMSAT 1 28 Aug 14:18:14 14:22:36 28° 69° (ENE) 14:26:59 435.822/435.867
Gurwin Techsat 1B 28 Aug 14:18:42 14:24:00 80° 259° (WSW) 14:29:20 435.225
O/OREOS (USA 219) 28 Aug 14:19:01 14:23:14 41° 293° (WNW) 14:27:32 437.305
BEESAT 28 Aug 14:21:11 14:24:24 18° 95° (E) 14:27:34 436.000
AO-85 28 Aug 14:26:40 14:30:46 53° 59° (ENE) 14:34:35 145.980
UKube-1 28 Aug 14:32:10 14:33:31 11° 295° (WNW) 14:34:52 .
Oscar 19 28 Aug 14:42:04 14:45:47 20° 265° (W) 14:49:33 437.125/150
SRMSAT 28 Aug 14:48:12 14:52:27 20° 180° (S) 14:56:43 437.500
AO-7 28 Aug 14:48:22 14:55:56 40° 64° (ENE) 15:03:30 29.400- 29.500
JUGNU 28 Aug 14:59:20 15:02:11 14° 194° (SSW) 15:05:01 437.505
ISS 28 Aug 15:03:10 15:06:01 27° 36° (NE) 15:08:52 145.825
ITUPSAT 1 28 Aug 15:08:01 15:12:44 59° 101° (E) 15:17:26 437.325
SWISSCUBE 28 Aug 15:40:38 15:45:16 52° 286° (WNW) 15:49:53 437.505
KKS-1 28 Aug 15:50:35 15:53:20 16° 94° (E) 15:56:04 437.445
ITAMSAT 1 28 Aug 15:57:32 16:01:57 28° 263° (W) 16:06:24 435.822/435.867
BEESAT 28 Aug 15:57:52 16:02:15 38° 288° (WNW) 16:06:38 436.000
MOZHAYETS 4 28 Aug 16:02:24 16:06:28 31° 97° (E) 16:10:32
HORYU 2 28 Aug 16:07:31 16:10:05 15° 67° (ENE) 16:12:38 437.375
STARS 28 Aug 16:23:31 16:26:28 18° 95° (E) 16:29:24 437.465
SRMSAT 28 Aug 16:37:19 16:40:57 17° 190° (S) 16:44:34 437.500
ISS 28 Aug 16:39:45 16:42:23 22° 231° (SW) 16:44:59 145.825
AO-7 28 Aug 16:40:50 16:48:32 41° 260° (W) 16:56:17 29.400- 29.500
ITUPSAT 1 28 Aug 16:48:03 16:50:01 12° 295° (WNW) 16:51:58 437.325
